Starlink 30472

operational
NORAD ID: 57901 Int'l Des: 2023-146 Owner: SPXS Country: US Constellation: starlink
LEOCIRCULAR

关于 Starlink 30472

正在加载描述...

实时位置

正在加载3D地球...

即将过境

高度历史

Altitude vs Time

uPlot chart will show altitude changes over time

两行轨道根数

1 57901U 23146L 25303.27274356 .00000402 00000-0 44836-4 0 9992
2 57901 43.0041 301.5208 0000910 267.5684 92.5054 15.02538108116391
Epoch: Oct 30, 2025 • Age: 20 hours

当前状态

高度 559.3 km
速度 7.58 km/s
星下点 -3.50°S, 43.42°E
发射日期 Sep 20, 2023
运行时间 2.1 years
类型 internet

技术详情

分类 Payload
质量 730.00 kg
干质量 700.00 kg
总质量 730.00 kg
长度 0.30 m
直径 4.10 m
跨度 29.00 m
形状 Box + pan
制造商 SPXS
平台类型 Starlink V2M
阶段状态 In Orbit
所有者/国家 SPXS/US

大型星座

Loading constellations...